When you browse on this site, cookies collect data to enhance your experience and personalize the content and advertising you see.
Visit our Privacy Policy to learn more. By continuing to use the site, you agree to this use of cookies and data.
  • In Austria
  • List of Countries
  • For 7 days
  • Water Temperature
  • Satellite Maps
  • Weather Map
  • News
  • Weather Widgets
  • user-avatar
    Login

    Hourly Weather Encamp

    Today, 16 January, Wednesday

    Time Temperature Precipitation Wind Pressure Humidity
    00:00 0°C° 0 mm 1 mps 621 mmHg 38%
    01:00 +1°C° 0 mm 1 mps 621 mmHg 34%
    02:00 +1°C° 0 mm 1 mps 621 mmHg 31%
    03:00 +1°C° 0 mm 1 mps 621 mmHg 28%
    04:00 +1°C° 0 mm 1 mps 621 mmHg 28%
    05:00 +1°C° 0 mm 1 mps 620 mmHg 29%
    06:00 +1°C° 0 mm 1 mps 620 mmHg 30%
    07:00 +2°C° 0 mm 1 mps 621 mmHg 31%
    08:00 +3°C° 0 mm 1 mps 621 mmHg 32%
    09:00 +4°C° 0 mm 1 mps 622 mmHg 33%
    10:00 +6°C° 0 mm 1 mps 622 mmHg 34%
    11:00 +7°C° 0 mm 1 mps 623 mmHg 35%
    12:00 +9°C° 0 mm 1 mps 623 mmHg 34%
    13:00 +8°C° 0 mm 1 mps 623 mmHg 37%
    14:00 +8°C° 0 mm 1 mps 622 mmHg 41%
    15:00 +7°C° 0 mm 1 mps 622 mmHg 45%
    16:00 +5°C° 0 mm 1 mps 621 mmHg 54%
    17:00 +2°C° 0 mm 1 mps 620 mmHg 62%
    18:00 0°C° 0 mm 1 mps 619 mmHg 70%
    19:00 0°C° 0 mm 1 mps 619 mmHg 70%
    20:00 0°C° 0 mm 1 mps 619 mmHg 69%
    21:00 -2°C° 0 mm 0 mps 619 mmHg 68%
    22:00 -2°C° 0 mm 0 mps 619 mmHg 68%
    23:00 -2°C° 0 mm 0 mps 619 mmHg 67%

    Tomorrow, 17 January, Thursday

    Time Temperature Precipitation Wind Pressure Humidity
    00:00 -2°C° 0 mm 0 mps 619 mmHg 67%
    01:00 -1°C° 0 mm 1 mps 619 mmHg 67%
    02:00 -1°C° 0 mm 1 mps 618 mmHg 67%
    03:00 -1°C° 0 mm 1 mps 618 mmHg 68%
    04:00 -2°C° 0 mm 1 mps 618 mmHg 71%
    05:00 -2°C° 0 mm 1 mps 618 mmHg 74%
    06:00 -2°C° 0 mm 1 mps 618 mmHg 77%
    07:00 -1°C° 0 mm 1 mps 618 mmHg 76%
    08:00 0°C° 0 mm 1 mps 619 mmHg 76%
    09:00 -1°C° 0 mm 2 mps 620 mmHg 76%
    10:00 -1°C° 0.3 mm 2 mps 620 mmHg 76%
    11:00 +1°C° 0.3 mm 2 mps 620 mmHg 75%
    12:00 +1°C° 0.3 mm 2 mps 620 mmHg 75%
    13:00 +1°C° 0.2 mm 2 mps 620 mmHg 76%
    14:00 +1°C° 0.2 mm 2 mps 620 mmHg 77%
    15:00 -1°C° 0.2 mm 2 mps 619 mmHg 78%
    16:00 -2°C° 0.1 mm 2 mps 619 mmHg 82%
    17:00 -3°C° 0.1 mm 2 mps 619 mmHg 85%
    18:00 -4°C° 0.1 mm 2 mps 619 mmHg 88%
    19:00 -5°C° 0 mm 2 mps 619 mmHg 88%
    20:00 -5°C° 0 mm 2 mps 619 mmHg 88%
    21:00 -6°C° 0 mm 2 mps 619 mmHg 88%
    22:00 -6°C° 0 mm 2 mps 619 mmHg 88%
    23:00 -6°C° 0 mm 2 mps 619 mmHg 88%

    Day after tomorrow, 18 January, Friday

    Time Temperature Precipitation Wind Pressure Humidity
    00:00 -6°C° 0 mm 2 mps 619 mmHg 88%
    01:00 -6°C° 0 mm 2 mps 619 mmHg 88%
    02:00 -7°C° 0 mm 2 mps 619 mmHg 88%
    03:00 -7°C° 0 mm 2 mps 619 mmHg 89%
    04:00 -7°C° 0 mm 2 mps 618 mmHg 87%
    05:00 -7°C° 0 mm 2 mps 618 mmHg 85%
    06:00 -7°C° 0 mm 2 mps 618 mmHg 83%
    07:00 -6°C° 0 mm 2 mps 619 mmHg 81%
    08:00 -5°C° 0 mm 2 mps 619 mmHg 78%
    09:00 -4°C° 0 mm 2 mps 620 mmHg 75%
    10:00 -3°C° 0 mm 2 mps 620 mmHg 68%
    11:00 -1°C° 0 mm 2 mps 621 mmHg 62%
    12:00 +1°C° 0 mm 2 mps 621 mmHg 55%
    13:00 +2°C° 0 mm 1 mps 620 mmHg 58%
    14:00 +1°C° 0 mm 1 mps 620 mmHg 61%
    15:00 +1°C° 0 mm 1 mps 619 mmHg 64%
    16:00 0°C° 0 mm 1 mps 619 mmHg 70%
    17:00 -1°C° 0 mm 1 mps 619 mmHg 76%
    18:00 -3°C° 0 mm 0 mps 619 mmHg 83%
    19:00 -3°C° 0 mm 0 mps 619 mmHg 82%
    20:00 -3°C° 0 mm 0 mps 619 mmHg 81%
    21:00 -3°C° 0 mm 0 mps 619 mmHg 80%
    22:00 -3°C° 0 mm 0 mps 619 mmHg 80%
    23:00 -3°C° 0 mm 0 mps 619 mmHg 80%

    19 January, Saturday

    Time Temperature Precipitation Wind Pressure Humidity
    00:00 -3°C° 0 mm 0 mps 619 mmHg 80%
    01:00 -4°C° 0 mm 0 mps 618 mmHg 81%
    02:00 -4°C° 0 mm 0 mps 618 mmHg 82%
    03:00 -5°C° 0 mm 0 mps 618 mmHg 83%
    04:00 -5°C° 0 mm 0 mps 617 mmHg 82%
    05:00 -5°C° 0 mm 0 mps 617 mmHg 80%
    06:00 -5°C° 0 mm 0 mps 617 mmHg 79%
    07:00 -3°C° 0 mm 1 mps 617 mmHg 75%
    08:00 -2°C° 0 mm 1 mps 618 mmHg 70%
    09:00 0°C° 0 mm 1 mps 618 mmHg 65%
    10:00 +1°C° 0 mm 1 mps 618 mmHg 62%
    11:00 +1°C° 0 mm 2 mps 618 mmHg 58%
    12:00 +2°C° 0 mm 2 mps 618 mmHg 55%
    13:00 +2°C° 0 mm 2 mps 618 mmHg 57%
    14:00 +2°C° 0 mm 2 mps 617 mmHg 60%
    15:00 +2°C° 0 mm 2 mps 616 mmHg 62%
    16:00 +1°C° 0 mm 2 mps 616 mmHg 71%
    17:00 -2°C° 0 mm 2 mps 615 mmHg 79%
    18:00 -1°C° 0 mm 1 mps 614 mmHg 87%
    19:00 -1°C° 0 mm 1 mps 614 mmHg 87%
    20:00 -1°C° 0 mm 1 mps 614 mmHg 87%
    21:00 -1°C° 0 mm 1 mps 615 mmHg 86%
    22:00 -1°C° 0 mm 1 mps 615 mmHg 85%
    23:00 -1°C° 0 mm 1 mps 615 mmHg 84%

    20 January, Sunday

    Time Temperature Precipitation Wind Pressure Humidity
    00:00 -1°C° 0 mm 1 mps 615 mmHg 83%
    01:00 -1°C° 0.1 mm 1 mps 615 mmHg 84%
    02:00 -1°C° 0.1 mm 1 mps 615 mmHg 86%
    03:00 -3°C° 0.1 mm 2 mps 615 mmHg 87%
    04:00 -3°C° 0.2 mm 2 mps 616 mmHg 87%
    05:00 -3°C° 0.2 mm 2 mps 616 mmHg 87%
    06:00 -3°C° 0.2 mm 2 mps 616 mmHg 87%
    07:00 -2°C° 0.2 mm 3 mps 617 mmHg 86%
    08:00 -2°C° 0.2 mm 3 mps 618 mmHg 84%
    09:00 -2°C° 0.2 mm 3 mps 618 mmHg 83%
    10:00 -1°C° 0.1 mm 3 mps 619 mmHg 78%
    11:00 -1°C° 0.1 mm 3 mps 619 mmHg 73%
    12:00 -1°C° 0.1 mm 3 mps 619 mmHg 68%
    13:00 -1°C° 0 mm 3 mps 619 mmHg 67%
    14:00 -1°C° 0 mm 3 mps 619 mmHg 66%
    15:00 -1°C° 0 mm 3 mps 619 mmHg 65%
    16:00 -4°C° 0 mm 3 mps 619 mmHg 71%
    17:00 -5°C° 0 mm 3 mps 618 mmHg 78%
    18:00 -6°C° 0 mm 2 mps 618 mmHg 84%
    19:00 -5°C° 0 mm 2 mps 618 mmHg 83%
    20:00 -5°C° 0 mm 2 mps 619 mmHg 82%
    21:00 -5°C° 0 mm 2 mps 619 mmHg 81%
    22:00 -5°C° 0.1 mm 2 mps 620 mmHg 83%
    23:00 -4°C° 0.1 mm 2 mps 620 mmHg 86%

    21 January, Monday

    Time Temperature Precipitation Wind Pressure Humidity
    00:00 -4°C° 0.1 mm 2 mps 620 mmHg 88%
    01:00 -4°C° 0.2 mm 2 mps 620 mmHg 88%
    02:00 -4°C° 0.2 mm 2 mps 620 mmHg 89%
    03:00 -4°C° 0.2 mm 2 mps 620 mmHg 89%
    04:00 -4°C° 0.1 mm 2 mps 620 mmHg 88%
    05:00 -5°C° 0.1 mm 2 mps 620 mmHg 88%
    06:00 -5°C° 0.1 mm 2 mps 620 mmHg 88%
    07:00 -5°C° 0.2 mm 2 mps 620 mmHg 86%
    08:00 -4°C° 0.2 mm 2 mps 621 mmHg 83%
    09:00 -4°C° 0.2 mm 3 mps 621 mmHg 81%
    10:00 -4°C° 0.2 mm 3 mps 621 mmHg 78%
    11:00 -4°C° 0.2 mm 3 mps 621 mmHg 75%
    12:00 -3°C° 0.2 mm 4 mps 621 mmHg 71%
    13:00 -4°C° 0.1 mm 4 mps 621 mmHg 71%
    14:00 -4°C° 0.1 mm 4 mps 621 mmHg 71%
    15:00 -5°C° 0.1 mm 4 mps 620 mmHg 70%
    16:00 -7°C° 0.1 mm 4 mps 620 mmHg 74%
    17:00 -7°C° 0.1 mm 3 mps 620 mmHg 79%
    18:00 -8°C° 0.1 mm 3 mps 620 mmHg 83%
    19:00 -9°C° 0 mm 3 mps 620 mmHg 83%
    20:00 -9°C° 0 mm 3 mps 620 mmHg 84%
    21:00 -9°C° 0 mm 3 mps 620 mmHg 84%
    22:00 -9°C° 0 mm 3 mps 620 mmHg 84%
    23:00 -10°C° 0 mm 3 mps 620 mmHg 83%
    Show more